Milwaukee, WI

3:58 PM CDT on August 22, 2017 (GMT -0500)
Gen Mitchell International

Weather History for KMKE - July, 2013

Change the Weather History Date:

Friday, July 12, 2013

  Actual Average Record
Temperature  
Mean Temperature 67 °F 72 °F  
Max Temperature 78 °F 80 °F 97 °F (1930)
Min Temperature 56 °F 64 °F 50 °F (1975)
Degree Days  
Heating Degree Days 0 0  
Month to date heating degree days 3 4  
Since 1 June heating degree days 90 88  
Since 1 July heating degree days 3 4  
Cooling Degree Days 2 7  
Month to date cooling degree days 86 83  
Year to date cooling degree days 224 233  
Since 1 June cooling degree days 185 203  
Growing Degree Days 16 (Base 50)    
Moisture  
Dew Point 56 °F    
Average Humidity 67    
Maximum Humidity 80    
Minimum Humidity 54    
Precipitation  
Precipitation 0.00 in 0.12 in 1.95 in (1956)
Month to date precipitation 0.60 1.49  
Year to date precipitation 25.91 18.03  
Snow  
Snow 0.00 in 0.00 in 0.00 in ()
Month to date snowfall 0.0 0.0  
Since 1 June snowfall 0.0 0.0  
Since 1 July snowfall 0.0 0.0  
Snow Depth 0.00 in    
Sea Level Pressure  
Sea Level Pressure 30.13 in    
Wind  
Wind Speed 4 mph (ESE)    
Max Wind Speed 12 mph    
Max Gust Speed 15 mph    
Visibility 10 miles    
Events      
T = Trace of Precipitation, MM = Missing Value Source: NWS Daily Summary

Daily Weather History Graph

Daily Weather History Graph

Search for Another Location

Airport or City:

Trip Planner

Search our weather history database for the weather conditions in past years. The results will help you decide how hot, cold, wet, or windy it might be!

Date:

Astronomy

Jul. 12, 2013 Rise Set
Actual Time 5:23 AM CDT 8:30 PM CDT
Civil Twilight 4:49 AM CDT 9:04 PM CDT
Nautical Twilight 4:05 AM CDT 9:48 PM CDT
Astronomical Twilight 3:12 AM CDT 10:40 PM CDT
Moon 9:48 AM CDT (7/12) 10:31 PM CDT (7/12)
Length of Visible Light 16h 14m
Length of Day
15h 06m
Waxing Crescent, 17% of the Moon is Illuminated
Jul 12
Waxing Crescent
Jul 15
First Quarter
Jul 22
Full
Jul 29
Last Quarter
Aug 6
New

Hourly Weather History & Observations

Time (CDT) Temp. Dew Point Humidity Pressure Visibility Wind Dir Wind Speed Gust Speed Precip Events Conditions
12:52 AM 62.1 °F 52.0 °F 70% 30.10 in 10.0 mi Calm Calm - N/A   Clear
1:52 AM 61.0 °F 51.1 °F 70% 30.11 in 10.0 mi Calm Calm - N/A   Clear
2:52 AM 60.1 °F 51.1 °F 72% 30.12 in 10.0 mi WNW 3.5 mph - N/A   Clear
3:52 AM 59.0 °F 51.1 °F 75% 30.12 in 10.0 mi Calm Calm - N/A   Clear
4:52 AM 57.0 °F 51.1 °F 81% 30.13 in 10.0 mi Calm Calm - N/A   Clear
5:52 AM 57.0 °F 50.0 °F 77% 30.14 in 10.0 mi Calm Calm - N/A   Partly Cloudy
6:52 AM 62.1 °F 54.0 °F 75% 30.14 in 10.0 mi Calm Calm - N/A   Partly Cloudy
7:52 AM 69.1 °F 59.0 °F 70% 30.16 in 10.0 mi North 3.5 mph - N/A   Partly Cloudy
8:52 AM 73.0 °F 59.0 °F 61% 30.16 in 10.0 mi Calm Calm - N/A   Partly Cloudy
9:52 AM 73.0 °F 60.1 °F 64% 30.16 in 10.0 mi Calm Calm - N/A   Partly Cloudy
10:52 AM 75.9 °F 57.9 °F 54% 30.15 in 10.0 mi NE 4.6 mph - N/A   Partly Cloudy
11:52 AM 75.9 °F 57.0 °F 52% 30.15 in 10.0 mi ENE 4.6 mph - N/A   Partly Cloudy
12:52 PM 77.0 °F 59.0 °F 54% 30.15 in 10.0 mi ENE 6.9 mph - N/A   Partly Cloudy
1:52 PM 77.0 °F 60.1 °F 56% 30.13 in 10.0 mi East 8.1 mph - N/A   Partly Cloudy
2:52 PM 78.1 °F 60.1 °F 54% 30.13 in 10.0 mi East 8.1 mph - N/A   Partly Cloudy
3:52 PM 77.0 °F 59.0 °F 54% 30.13 in 10.0 mi ESE 8.1 mph - N/A   Partly Cloudy
4:52 PM 77.0 °F 60.1 °F 56% 30.12 in 10.0 mi SE 9.2 mph - N/A   Partly Cloudy
5:52 PM 73.9 °F 62.1 °F 66% 30.11 in 10.0 mi ESE 11.5 mph - N/A   Partly Cloudy
6:52 PM 73.0 °F 60.1 °F 64% 30.10 in 10.0 mi SE 6.9 mph - N/A   Scattered Clouds
7:52 PM 70.0 °F 60.1 °F 71% 30.10 in 10.0 mi SSE 5.8 mph - N/A   Mostly Cloudy
8:52 PM 70.0 °F 55.9 °F 61% 30.11 in 9.0 mi SE 3.5 mph - N/A   Scattered Clouds
9:52 PM 66.0 °F 57.0 °F 73% 30.12 in 10.0 mi Calm Calm - N/A   Clear
10:52 PM 64.9 °F 55.0 °F 70% 30.11 in 10.0 mi SSE 4.6 mph - N/A   Clear
11:52 PM 64.9 °F 57.0 °F 75% 30.11 in 10.0 mi SSE 4.6 mph - N/A   Clear